Regional Weather Roundup
Issued by NWS

Home | Current Version | Previous Version | Graphics & Text | Print | Product List | Glossary On
Versions: 1 2 3 4 5 6 7 8 9 10 11 12 13 14 15 16 17 18 19 20 21 22 23 24 25 26 27 28 29 30 31 32 33 34 35 36 37 38 39 40 41 42 43 44 45 46 47 48 49 50
000
ASUS44 KMEG 291110
RWRTN
TENNESSEE HOURLY STATE WEATHER ROUNDUP
NATIONAL WEATHER SERVICE MEMPHIS TN
500 AM CST THU JAN 29 2015

TNZ002-004-019-021-049-052-054-088>092-291200-
WEST TENNESSEE

CITY           SKY/WX    TMP DP  RH WIND       PRES   REMARKS
MEMPHIS INTL   CLOUDY    57  40  52 SW18G28   30.01F
NWS MEMPHIS      N/A     58 N/A N/A MISG        N/A
JACKSON        CLOUDY    55  36  48 S20G31    29.99F
DYERSBURG      CLOUDY    55  32  41 SW9       29.98R
UNION CITY     CLEAR     52  37  58 S13       29.93S
PARIS          CLEAR     50  34  53 S15       29.96S
LEXINGTON      CLOUDY    48  34  57 S14       30.02S
SAVANNAH       CLOUDY    48  36  61 S14       30.08S
$$

TNZ008-025-027-028-033-062-065-066-291200-
NORTH MIDDLE TENNESSEE

CITY           SKY/WX    TMP DP  RH WIND       PRES   REMARKS
NASHVILLE      CLOUDY    49  29  46 S17       30.06F
CLARKSVILLE    CLOUDY    50  34  54 S15       29.96F
SMYRNA         CLOUDY    48  29  48 S8G20     30.08F
COOKEVILLE     CLEAR     43  25  49 S10       30.08F
CROSSVILLE     PTCLDY    41  20  43 S8G18     30.13F
$$

TNZ061-075-076-078-094-096-097-291200-
SOUTH MIDDLE TENNESSEE

CITY           SKY/WX    TMP DP  RH WIND       PRES   REMARKS
FAYETTEVILLE   CLEAR     41  25  52 MISG      30.13S
TULLAHOMA      CLEAR     45  25  45 S12       30.12S
WINCHESTER     CLEAR     43  27  52 SE9       30.16S
MCMINNVILLE    CLEAR     46  27  46 S5        30.10F
COLUMBIA       CLOUDY    48  30  49 S13       30.06S
SHELBYVILLE    MOCLDY    46  28  49 S17       30.11F
$$

TNZ017-018-042-046-047-291200-
NORTHEAST TENNESSEE

CITY           SKY/WX    TMP DP  RH WIND       PRES   REMARKS
TRI CITIES     MOCLDY    25  22  88 CALM      30.18F
ELIZABETHTON   SUNNY     28  21  74 NE3       30.17F
$$

TNZ012-013-036-069-073-074-291200-
CENTRAL EAST TENNESSEE

CITY           SKY/WX    TMP DP  RH WIND       PRES   REMARKS
KNOXVILLE      MOCLDY    29  23  78 S3        30.20
OAK RIDGE      PTCLDY    30  23  75 CALM      30.21S
GATLINBURG     SUNNY     25  21  86 CALM      30.21R
MORRISTOWN     SUNNY     28  21  74 CALM      30.19R
$$

TNZ083-085-099-291200-
SOUTHEAST TENNESSEE

CITY           SKY/WX    TMP DP  RH WIND       PRES   REMARKS
CHATTANOOGA    MOCLDY    30  25  81 S3        30.24S
$$

SKY/WX REPORTED AS FAIR MEANS FEW OR NO CLOUDS BELOW
12 THOUSAND FEET.




USA.gov is the U.S. government's official web portal to all federal, state and local government web resources and services.